Regional Weather Roundup
Issued by NWS Columbia, SC

Current Version | Previous Version | Text Only | Print | Product List | Glossary On
Versions: 1 2 3 4 5 6 7 8 9 10 11 12 13 14 15 16 17 18 19 20 21 22 23 24 25 26 27 28 29 30 31 32 33 34 35 36 37 38 39 40 41 42 43 44 45 46 47 48 49 50
000
ASUS42 KCAE 112210
RWRCAE
REGIONAL WEATHER ROUNDUP
NATIONAL WEATHER SERVICE COLUMBIA SC
500 PM EST TUE DEC 11 2018

NOTE: "FAIR" INDICATES FEW OR NO CLOUDS BELOW 12,000 FEET WITH NO
SIGNIFICANT WEATHER AND/OR OBSTRUCTIONS TO VISIBILITY.

NOT ALL STATIONS ARE QUALITY CONTROLLED BY THE NATIONAL
WEATHER SERVICE. USE DATA WITH CAUTION...ESPECIALLY
DEWPOINT OBSERVATIONS.

SCZ001>056-GAZ040-063>065-077-112300-
...UPSTATE SOUTH CAROLINA...

CITY           SKY/WX    TMP DP  RH WIND       PRES   REMARKS
ANDERSON       FAIR      52  30  43 SW6       30.18S
LIBERTY        FAIR      52  34  50 SW6       30.16S
SPARTANBURG    FAIR      50  28  43 SW5       30.17S
CLEMSON        FAIR      52  26  36 SW3       30.17S
GREENVILLE     FAIR      51  31  46 SW7       30.17S
GREENWOOD      FAIR      47  35  63 SW7       30.20S
GREER          FAIR      48  31  51 SW7       30.17S
ROCK HILL      FAIR      48  26  42 SW3       30.16S
CHESTER        FAIR      48  27  43 CALM      30.17S
LAURENS        FAIR      52  34  50 W5        30.17F


...CENTRAL SOUTH CAROLINA...

CITY           SKY/WX    TMP DP  RH WIND       PRES   REMARKS
COLUMBIA APT   FAIR      50  36  58 W7        30.19R
COLUMBIA OWENS FAIR      54  33  45 W5        30.20R
MCENTIRE ANGB  CLEAR     50  27  40 W3        30.18S
ORANGEBURG     FAIR      52  34  50 W8        30.20R
SUMTER SHAW    FAIR      50  32  51 W5        30.17S
NEWBERRY       FAIR      50  32  50 SW5       30.21S
AIKEN          FAIR      50  32  50 W6        30.23S
BARNWELL       FAIR      52  34  50 W5        30.21S
MANNING        FAIR      50  32  50 CALM      30.19R
CAMDEN         FAIR      50  32  50 W3        30.18S
WINNSBORO      FAIR      50  34  53 SW5       30.17F


...EASTERN AND COASTAL SOUTH CAROLINA...

CITY           SKY/WX    TMP DP  RH WIND       PRES   REMARKS
MYRTLE BEACH   FAIR      48  30  49 NW8       30.18R
N MYRTLE BCH   FAIR      48  29  47 VRB6      30.15R
CONWAY         FAIR      45  32  61 CALM      30.17S
MARION         FAIR      46  30  53 W5        30.17S
HARTSVILLE     FAIR      45  34  65 SW3       30.16S
FLORENCE       FAIR      49  29  46 W5        30.17R
DARLINGTON     FAIR      49  30  48 W6        30.17S
CHARLESTON APT FAIR      51  31  46 NW8       30.19R
MOUNT PLEASANT FAIR      52  32  46 NW5       30.19R
WALTERBORO     FAIR      50  36  57 CALM      30.22R
BEAUFORT       FAIR      52  36  54 W7        30.23
HILTON HEAD    CLEAR     52  32  46 W8        30.23R


...EASTERN GEORGIA...

CITY           SKY/WX    TMP DP  RH WIND       PRES   REMARKS
AUGUSTA BUSH F FAIR      53  35  50 W6        30.22R
AUGUSTA DANIEL FAIR      53  35  50 SW3       30.22S
THOMSON        FAIR      51  37  57 NW5       30.27S
CLAXTON        FAIR      54  40  59 SW3       30.24R HAZE
SYLVANIA       FAIR      54  38  56 NW5       30.24R
STATESBORO     FAIR      52  37  57 W5        30.23S
SAVANNAH       FAIR      53  36  52 W8        30.23R


...SOUTHERN NORTH CAROLINA...

CITY           SKY/WX    TMP DP  RH WIND       PRES   REMARKS
CHARLOTTE      FAIR      49  24  37 SW5       30.15S
MONROE         FAIR      48  22  35 W7        30.14S
WADESBORO      FAIR      47  27  45 CALM      30.15S
ROCKINGHAM     FAIR      47  29  49 CALM      30.15S
ASHEVILLE      FAIR      43  20  39 N8        30.15S

$$



USA.gov is the U.S. government's official web portal to all federal, state and local government web resources and services.